Weather History for Davenport, IA

Change the Weather History Date:

Saturday, June 29, 2013

  Actual Average Record
Temperature  
Mean Temperature 69 °F 73 °F  
Max Temperature 74 °F 83 °F 96 °F (1952)
Min Temperature 63 °F 62 °F 52 °F (2004)
Degree Days  
Heating Degree Days 0 0  
Month to date heating degree days 24 22  
Since 1 June heating degree days 24 22  
Since 1 July heating degree days 6567 6509  
Cooling Degree Days 4 8  
Month to date cooling degree days 192 174  
Year to date cooling degree days 287 235  
Since 1 June cooling degree days 192 174  
Growing Degree Days 18 (Base 50)    
Moisture  
Dew Point 62 °F    
Average Humidity 79    
Maximum Humidity 93    
Minimum Humidity 64    
Precipitation  
Precipitation 0.93 in 0.11 in 1.47 in (1998)
Month to date precipitation 4.43 4.07  
Year to date precipitation 25.40 16.88  
Snow  
Snow 0.00 in - - ()
Month to date snowfall 0.0  
Since 1 June snowfall 0.0  
Since 1 July snowfall 27.1  
Snow Depth 0.00 in    
Sea Level Pressure  
Sea Level Pressure 29.71 in    
Wind  
Wind Speed 11 mph (North)    
Max Wind Speed 26 mph    
Max Gust Speed 40 mph    
Visibility 7 miles    
Events Fog , Rain , Thunderstorm    
T = Trace of Precipitation, MM = Missing Value Source: NWS Daily Summary

Daily Weather History Graph

Daily Weather History Graph

Search for Another Location

Airport:

Trip Planner

Search our weather history database for the weather conditions in past years. The results will help you decide how hot, cold, wet, or windy it might be!

Date:

Astronomy

Jun. 29, 2013 Rise Set
Actual Time 5:31 AM CDT 8:40 PM CDT
Civil Twilight 4:57 AM CDT 9:14 PM CDT
Nautical Twilight 4:13 AM CDT 9:58 PM CDT
Astronomical Twilight 3:21 AM CDT 10:50 PM CDT
Moon 12:04 AM CDT (6/29) 12:48 PM CDT (6/29)
Length of Visible Light 16h 17m
Length of Day
15h 09m
Waning Gibbous, 55% of the Moon is Illuminated
Jun 29
Waning Gibbous
Jun 29
Last Quarter
Jul 8
New
Jul 15
First Quarter
Jul 22
Full

Hourly Weather History & Observations

Time (CDT) Temp. Dew Point Humidity Pressure Visibility Wind Dir Wind Speed Gust Speed Precip Events Conditions
12:52 AM 64.9 °F 60.1 °F 84% 29.66 in 10.0 mi WNW 8.1 mph - N/A   Clear
1:52 AM 64.0 °F 61.0 °F 90% 29.66 in 10.0 mi WNW 8.1 mph - N/A   Clear
2:52 AM 64.0 °F 61.0 °F 90% 29.65 in 10.0 mi NW 6.9 mph - N/A   Clear
3:52 AM 64.0 °F 61.0 °F 90% 29.67 in 10.0 mi NW 8.1 mph - N/A   Clear
4:18 AM 64.4 °F 60.8 °F 88% 29.68 in 10.0 mi NNW 8.1 mph - N/A   Mostly Cloudy
4:37 AM 64.4 °F 60.8 °F 88% 29.68 in 10.0 mi NNW 8.1 mph - N/A   Scattered Clouds
4:52 AM 63.0 °F 61.0 °F 93% 29.66 in 10.0 mi NNW 6.9 mph - N/A   Clear
5:32 AM 64.4 °F 62.6 °F 94% 29.69 in 10.0 mi NNW 9.2 mph - N/A   Mostly Cloudy
5:52 AM 64.9 °F 62.1 °F 90% 29.68 in 10.0 mi NNW 8.1 mph - N/A   Overcast
6:52 AM 66.0 °F 62.1 °F 87% 29.68 in 10.0 mi NW 8.1 mph - N/A   Overcast
7:52 AM 66.0 °F 63.0 °F 90% 29.69 in 10.0 mi NW 9.2 mph - N/A   Overcast
8:45 AM 68.0 °F 62.6 °F 83% 29.69 in 10.0 mi NNW 9.2 mph - N/A   Overcast
8:52 AM 68.0 °F 63.0 °F 84% 29.68 in 10.0 mi NNW 13.8 mph - 0.00 in Rain Light Rain
9:02 AM 68.0 °F 62.6 °F 83% 29.69 in 10.0 mi NNW 13.8 mph - 0.00 in   Overcast
9:43 AM 69.8 °F 62.6 °F 78% 29.69 in 10.0 mi North 11.5 mph - 0.00 in   Mostly Cloudy
9:52 AM 70.0 °F 63.0 °F 78% 29.68 in 10.0 mi NNW 15.0 mph - 0.00 in   Mostly Cloudy
10:25 AM 69.8 °F 64.4 °F 83% 29.69 in 10.0 mi NW 15.0 mph - 0.00 in   Overcast
10:52 AM 71.1 °F 62.1 °F 73% 29.68 in 10.0 mi NNW 16.1 mph 21.9 mph 0.00 in   Mostly Cloudy
11:00 AM 71.6 °F 62.6 °F 73% 29.69 in 10.0 mi NNW 13.8 mph 21.9 mph N/A   Mostly Cloudy
11:34 AM 73.4 °F 62.6 °F 69% 29.69 in 10.0 mi NNW 15.0 mph - N/A   Mostly Cloudy
11:52 AM 73.0 °F 61.0 °F 66% 29.68 in 10.0 mi NNW 16.1 mph 23.0 mph N/A   Scattered Clouds
12:27 PM 71.6 °F 60.8 °F 69% 29.70 in 10.0 mi NE 17.3 mph - N/A Thunderstorm Thunderstorm
12:30 PM 69.8 °F 62.6 °F 78% 29.70 in 8.0 mi NE 18.4 mph - 0.00 in Rain , Thunderstorm Light Thunderstorms and Rain
12:40 PM 66.2 °F 62.6 °F 88% 29.71 in 2.0 mi NNE 12.7 mph - 0.07 in Rain Light Rain
12:43 PM 64.4 °F 62.6 °F 94% 29.71 in 0.8 mi NNE 16.1 mph - 0.21 in Rain Heavy Rain
12:50 PM 64.4 °F 62.6 °F 94% 29.71 in 0.5 mi North 10.4 mph 20.7 mph 0.37 in Fog , Rain , Thunderstorm Heavy Rain
12:52 PM 64.0 °F 62.1 °F 93% 29.71 in 0.5 mi North 10.4 mph 16.1 mph 0.38 in Fog , Rain , Thunderstorm Heavy Rain
12:59 PM 64.4 °F 62.6 °F 94% 29.72 in 1.0 mi North 15.0 mph 21.9 mph 0.13 in Rain Heavy Rain
1:11 PM 64.4 °F 62.6 °F 94% 29.71 in 2.0 mi North 5.8 mph - 0.17 in Rain Heavy Rain
1:25 PM 64.4 °F 62.6 °F 94% 29.72 in 5.0 mi NNW 11.5 mph - 0.19 in Rain Light Rain
1:32 PM 64.4 °F 62.6 °F 94% 29.72 in 1.8 mi North 12.7 mph 18.4 mph 0.24 in Rain Heavy Rain
1:40 PM 64.4 °F 62.6 °F 94% 29.72 in 3.0 mi NNW 12.7 mph - 0.24 in Rain Light Rain
1:52 PM 64.9 °F 63.0 °F 93% 29.71 in 5.0 mi NNW 8.1 mph - 0.25 in Rain Light Rain
2:52 PM 71.1 °F 64.0 °F 78% 29.70 in 10.0 mi NNE 11.5 mph - 0.01 in   Partly Cloudy
3:17 PM 73.4 °F 64.4 °F 73% 29.72 in 10.0 mi ENE 8.1 mph - N/A Thunderstorm Clear
3:32 PM 64.4 °F 60.8 °F 88% 29.74 in 1.5 mi NE 16.1 mph 32.2 mph 0.09 in Rain , Thunderstorm Heavy Rain
3:36 PM 62.6 °F 60.8 °F 94% 29.74 in 0.8 mi ENE 10.4 mph 31.1 mph 0.14 in Rain , Thunderstorm Heavy Thunderstorms and Rain
3:45 PM 64.4 °F 60.8 °F 88% 29.74 in 2.0 mi NE 11.5 mph - 0.20 in Rain , Thunderstorm Thunderstorms and Rain
3:52 PM 64.0 °F 62.1 °F 93% 29.73 in 3.0 mi ENE 10.4 mph - 0.22 in Rain , Thunderstorm Thunderstorms and Rain
4:19 PM 66.2 °F 62.6 °F 88% 29.73 in 10.0 mi ENE 8.1 mph - 0.00 in   Mostly Cloudy
4:52 PM 70.0 °F 62.1 °F 76% 29.73 in 10.0 mi ENE 12.7 mph - 0.00 in   Partly Cloudy
5:24 PM 66.2 °F 60.8 °F 83% 29.75 in 1.8 mi NNE 16.1 mph 25.3 mph 0.05 in Rain Heavy Rain
5:33 PM 66.2 °F 60.8 °F 83% 29.74 in 3.0 mi NE 9.2 mph - 0.06 in Rain Rain
5:52 PM 66.0 °F 62.1 °F 87% 29.74 in 9.0 mi North 10.4 mph - 0.06 in Rain Light Rain
6:52 PM 69.1 °F 62.1 °F 78% 29.75 in 10.0 mi NNE 16.1 mph - 0.01 in   Clear
7:52 PM 66.9 °F 62.1 °F 84% 29.78 in 10.0 mi North 9.2 mph - N/A   Overcast
8:52 PM 66.0 °F 60.1 °F 81% 29.79 in 10.0 mi North 10.4 mph - N/A   Overcast
9:52 PM 64.9 °F 60.1 °F 84% 29.81 in 10.0 mi North 10.4 mph - N/A   Mostly Cloudy
10:52 PM 64.9 °F 60.1 °F 84% 29.82 in 10.0 mi North 10.4 mph - N/A   Mostly Cloudy
11:52 PM 64.9 °F 59.0 °F 81% 29.82 in 10.0 mi North 10.4 mph - N/A   Overcast